McMinnville, OR

3:47 PM PST on November 21, 2017 (GMT -0800)
McMinnville Municipal

Weather History for KMMV - January, 2013

Change the Weather History Date:

Thursday, January 17, 2013

  Actual Average Record
Temperature  
Mean Temperature 36 °F 41 °F  
Max Temperature 42 °F 48 °F 61 °F (1975)
Min Temperature 29 °F 34 °F 12 °F (1907)
Degree Days  
Heating Degree Days 29 24  
Month to date heating degree days 472 420  
Since 1 July heating degree days 2125 2425  
Cooling Degree Days 0 0  
Month to date cooling degree days 0 0  
Year to date cooling degree days 0 0  
Moisture  
Dew Point 29 °F    
Average Humidity 83    
Maximum Humidity 92    
Minimum Humidity 73    
Precipitation  
Precipitation 0.00 in 0.21 in 1.92 in (2015)
Month to date precipitation 0.33 3.59  
Year to date precipitation 0.33 3.59  
Snow  
Snow 0.00 in - - ()
Month to date snowfall 0.0  
Snow Depth 0.00 in    
Sea Level Pressure  
Sea Level Pressure 30.44 in    
Wind  
Wind Speed 3 mph (NW)    
Max Wind Speed 7 mph    
Max Gust Speed 9 mph    
Visibility 3 miles    
Events Fog    
T = Trace of Precipitation, MM = Missing Value Source: NWS Daily Summary

Daily Weather History Graph

Daily Weather History Graph

Search for Another Location

Airport or City:

Trip Planner

Search our weather history database for the weather conditions in past years. The results will help you decide how hot, cold, wet, or windy it might be!

Date:

Astronomy

Jan. 17, 2013 Rise Set
Actual Time 7:46 AM PST 4:59 PM PST
Civil Twilight 7:13 AM PST 5:32 PM PST
Nautical Twilight 6:37 AM PST 6:08 PM PST
Astronomical Twilight 6:02 AM PST 6:43 PM PST
Moon 10:35 AM PST (1/17) No Moon Set
Length of Visible Light 10h 18m
Length of Day
9h 13m
Waxing Crescent, 39% of the Moon is Illuminated
Jan 17
Waxing Crescent
Jan 18
First Quarter
Jan 26
Full
Feb 3
Last Quarter
Feb 9
New

Hourly Weather History & Observations

Time (PST) Temp. Windchill Dew Point Humidity Pressure Visibility Wind Dir Wind Speed Gust Speed Precip Events Conditions
12:00 AM 33.8 °F 30.8 °F 30.2 °F 87% 30.52 in 0.8 mi NW 3.5 mph - N/A   Mist
12:34 AM 33.8 °F - 30.2 °F 87% 30.51 in 1.0 mi Calm Calm - N/A   Mist
1:53 AM 33.1 °F 28.7 °F 30.9 °F 92% 30.50 in 1.0 mi NNW 4.6 mph - N/A   Overcast
2:09 AM 33.8 °F 30.8 °F 30.2 °F 87% 30.49 in 0.8 mi North 3.5 mph - N/A   Overcast
2:33 AM 32.0 °F 26.4 °F 30.2 °F 93% 30.50 in 1.0 mi NNW 5.8 mph - N/A   Overcast
2:53 AM 32.0 °F 27.5 °F 30.0 °F 92% 30.51 in 1.2 mi NNW 4.6 mph - N/A   Overcast
4:10 AM 32.0 °F 26.4 °F 30.2 °F 93% 30.49 in 1.8 mi North 5.8 mph - N/A   Overcast
4:39 AM 32.0 °F 27.5 °F 30.2 °F 93% 30.49 in 2.5 mi North 4.6 mph - N/A   Overcast
4:48 AM 32.0 °F 26.4 °F 30.2 °F 93% 30.48 in 3.0 mi NNW 5.8 mph - N/A   Overcast
4:53 AM 32.0 °F 26.4 °F 30.0 °F 92% 30.49 in 3.0 mi NNW 5.8 mph - N/A   Overcast
5:15 AM 32.0 °F 26.4 °F 30.2 °F 93% 30.48 in 2.5 mi NNW 5.8 mph - N/A   Overcast
5:22 AM 32.0 °F 27.5 °F 30.2 °F 93% 30.47 in 4.0 mi North 4.6 mph - N/A   Overcast
5:39 AM 32.0 °F 27.5 °F 30.2 °F 93% 30.47 in 3.0 mi NNW 4.6 mph - N/A   Overcast
5:53 AM 32.0 °F 27.5 °F 30.0 °F 92% 30.47 in 4.0 mi NNW 4.6 mph - N/A   Overcast
6:07 AM 32.0 °F 27.5 °F 30.2 °F 93% 30.47 in 1.8 mi NW 4.6 mph - N/A   Overcast
6:31 AM 32.0 °F 27.5 °F 28.4 °F 87% 30.46 in 2.5 mi NNW 4.6 mph - N/A   Overcast
6:41 AM 30.2 °F 24.3 °F 28.4 °F 93% 30.46 in 4.0 mi NNW 5.8 mph - N/A   Overcast
6:53 AM 30.9 °F 25.2 °F 28.9 °F 92% 30.47 in 4.0 mi NW 5.8 mph - N/A   Overcast
7:53 AM 30.9 °F 25.2 °F 28.9 °F 92% 30.47 in 6.0 mi NNW 5.8 mph - N/A   Overcast
8:01 AM 30.2 °F 25.4 °F 28.4 °F 93% 30.47 in 6.0 mi NNW 4.6 mph - N/A   Overcast
8:53 AM 30.9 °F 25.2 °F 28.9 °F 92% 30.48 in 2.5 mi WNW 5.8 mph - N/A   Overcast
9:15 AM 32.0 °F 28.7 °F 28.4 °F 87% 30.47 in 4.0 mi NNW 3.5 mph - N/A   Overcast
9:29 AM 30.2 °F 25.4 °F 28.4 °F 93% 30.47 in 2.0 mi NW 4.6 mph - N/A   Overcast
9:41 AM 30.2 °F - 28.4 °F 93% 30.47 in 1.8 mi Calm Calm - N/A   Overcast
9:46 AM 30.2 °F - 28.4 °F 93% 30.47 in 3.0 mi Calm Calm - N/A   Overcast
9:53 AM 32.0 °F 27.5 °F 28.9 °F 88% 30.48 in 4.0 mi NNW 4.6 mph - N/A   Overcast
10:06 AM 30.2 °F 26.7 °F 28.4 °F 93% 30.47 in 2.5 mi NNW 3.5 mph - N/A   Overcast
10:19 AM 30.2 °F - 28.4 °F 93% 30.47 in 3.0 mi Calm Calm - N/A   Overcast
10:53 AM 30.9 °F - 28.9 °F 92% 30.46 in 3.0 mi Calm Calm - N/A   Overcast
11:53 AM 33.1 °F - 30.0 °F 89% 30.44 in 4.0 mi Calm Calm - N/A   Overcast
12:20 PM 33.8 °F - 30.2 °F 87% 30.42 in 4.0 mi Calm Calm - N/A   Overcast
12:53 PM 36.0 °F - 30.9 °F 82% 30.41 in 5.0 mi Calm Calm - N/A   Haze
1:37 PM 37.4 °F - 32.0 °F 81% 30.38 in 7.0 mi Calm Calm - N/A   Scattered Clouds
1:53 PM 39.0 °F - 32.0 °F 76% 30.38 in 7.0 mi Calm Calm - N/A   Partly Cloudy
2:53 PM 41.0 °F - 33.1 °F 73% 30.37 in 9.0 mi Calm Calm - N/A   Clear
3:53 PM 41.0 °F 39.0 °F 34.0 °F 76% 30.35 in 9.0 mi SSW 3.5 mph - N/A   Clear
4:53 PM 36.0 °F 30.3 °F 30.9 °F 82% 30.35 in 6.0 mi West 6.9 mph - N/A   Haze
5:53 PM 32.0 °F 27.5 °F 28.9 °F 88% 30.35 in 7.0 mi WSW 4.6 mph - N/A   Clear
6:53 PM 33.1 °F 30.0 °F 30.0 °F 89% 30.34 in 6.0 mi West 3.5 mph - N/A   Clear
7:53 PM 33.1 °F - 30.0 °F 89% 30.35 in 5.0 mi Calm Calm - N/A   Clear
8:42 PM 28.4 °F - 26.6 °F 93% 30.35 in 2.5 mi Calm Calm - N/A   Scattered Clouds
8:53 PM 28.9 °F - 26.1 °F 89% 30.35 in 2.5 mi Calm Calm - N/A   Mostly Cloudy
9:01 PM 28.4 °F - 26.6 °F 93% 30.35 in 0.8 mi Calm Calm - N/A   Mist
9:10 PM 30.2 °F - 26.6 °F 86% 30.35 in 0.2 mi Calm Calm - N/A Fog Light Freezing Fog
9:53 PM 28.9 °F - 27.0 °F 92% 30.35 in 0.2 mi Calm Calm - N/A Fog Light Freezing Fog
10:53 PM 30.0 °F - 28.0 °F 92% 30.35 in 0.2 mi Calm Calm - N/A Fog Light Freezing Fog
11:53 PM 30.0 °F 26.5 °F 28.0 °F 92% 30.34 in 0.2 mi SW 3.5 mph - N/A Fog Light Freezing Fog